Weather History for KBFF - January, 2009

Change the Weather History Date:

Tuesday, January 6, 2009

  Actual Average Record
Temperature  
Mean Temperature 29 °F 27 °F  
Max Temperature 43 °F 40 °F 65 °F (1954)
Min Temperature 15 °F 13 °F -29 °F (2004)
Degree Days  
Heating Degree Days 36 38  
Month to date heating degree days 206 233  
Since 1 July heating degree days 2944 3005  
Cooling Degree Days 0 0  
Month to date cooling degree days 0  
Year to date cooling degree days 0  
Moisture  
Dew Point 13 °F    
Average Humidity 59    
Maximum Humidity 88    
Minimum Humidity 26    
Precipitation  
Precipitation 0.00 in 0.01 in 0.30 in (1909)
Month to date precipitation T 0.08  
Year to date precipitation T 0.08  
Snow  
Snow 0.00 in 0.20 in 3.70 in (1944)
Month to date snowfall T 1.1  
Since 1 July snowfall 5.8 17.1  
Snow Depth 0.00 in    
Sea Level Pressure  
Sea Level Pressure 29.73 in    
Wind  
Wind Speed 10 mph (NW)    
Max Wind Speed 25 mph    
Max Gust Speed 34 mph    
Visibility 10 miles    
Events      
T = Trace of Precipitation, MM = Missing Value Source: NWS Daily Summary

Daily Weather History Graph

Daily Weather History Graph

Search for Another Location

Airport or City:

Trip Planner

Search our weather history database for the weather conditions in past years. The results will help you decide how hot, cold, wet, or windy it might be!

Date:

Astronomy

Jan. 06, 2009 Rise Set
Actual Time 7:22 AM MST 4:39 PM MST
Civil Twilight 6:50 AM MST 5:10 PM MST
Nautical Twilight 6:15 AM MST 5:45 PM MST
Astronomical Twilight 5:42 AM MST 6:18 PM MST
Moon 12:14 PM MST (1/6) 2:30 AM MST (1/6)
Length of Visible Light 10h 19m
Length of Day
9h 17m
Waxing Gibbous, 75% of the Moon is Illuminated
Jan 6
Waxing Gibbous
Jan 10
Full
Jan 17
Last Quarter
Jan 26
New
Feb 2
First Quarter

Hourly Weather History & Observations

Time (MST) Temp. Windchill Dew Point Humidity Pressure Visibility Wind Dir Wind Speed Gust Speed Precip Events Conditions
12:53 AM 19.0 °F 7.5 °F 8.1 °F 62% 29.63 in 10.0 mi WNW 10.4 mph - N/A   Clear
1:53 AM 18.0 °F 12.7 °F 8.1 °F 65% 29.65 in 10.0 mi West 3.5 mph - N/A   Clear
2:53 AM 17.1 °F 10.0 °F 8.1 °F 68% 29.68 in 10.0 mi West 4.6 mph - N/A   Clear
3:53 AM 16.0 °F 8.8 °F 7.0 °F 68% 29.69 in 10.0 mi NW 4.6 mph - N/A   Clear
4:53 AM 15.1 °F 6.4 °F 7.0 °F 70% 29.70 in 10.0 mi NNW 5.8 mph - N/A   Scattered Clouds
5:53 AM 23.0 °F 13.1 °F 10.9 °F 60% 29.70 in 10.0 mi WNW 9.2 mph - N/A   Mostly Cloudy
6:53 AM 25.0 °F 13.1 °F 10.9 °F 55% 29.70 in 10.0 mi WNW 13.8 mph - N/A   Mostly Cloudy
7:53 AM 25.0 °F 15.5 °F 10.9 °F 55% 29.73 in 10.0 mi WNW 9.2 mph - N/A   Overcast
8:53 AM 30.0 °F 20.0 °F 12.0 °F 47% 29.75 in 10.0 mi WNW 12.7 mph - N/A   Mostly Cloudy
9:53 AM 30.9 °F 19.8 °F 12.0 °F 46% 29.76 in 10.0 mi West 16.1 mph 23.0 mph N/A   Mostly Cloudy
10:53 AM 37.0 °F 26.4 °F 10.9 °F 34% 29.74 in 10.0 mi WNW 20.7 mph 26.5 mph N/A   Mostly Cloudy
11:53 AM 39.0 °F 28.8 °F 10.0 °F 30% 29.71 in 10.0 mi WNW 21.9 mph 26.5 mph N/A   Partly Cloudy
12:53 PM 42.1 °F 32.1 °F 9.0 °F 26% 29.69 in 10.0 mi WNW 25.3 mph 34.5 mph N/A   Partly Cloudy
1:53 PM 41.0 °F 31.9 °F 10.0 °F 28% 29.70 in 10.0 mi NNW 19.6 mph 29.9 mph N/A   Partly Cloudy
2:53 PM 39.0 °F 30.6 °F 12.0 °F 33% 29.73 in 10.0 mi NNW 15.0 mph - N/A   Mostly Cloudy
3:53 PM 36.0 °F 27.1 °F 19.0 °F 50% 29.77 in 10.0 mi North 13.8 mph - N/A   Overcast
4:53 PM 30.0 °F 25.2 °F 19.0 °F 64% 29.80 in 10.0 mi NNW 4.6 mph - N/A   Overcast
5:53 PM 28.9 °F 19.8 °F 21.0 °F 72% 29.79 in 10.0 mi North 10.4 mph - N/A   Scattered Clouds
6:53 PM 28.0 °F 21.7 °F 21.0 °F 75% 29.81 in 10.0 mi WSW 5.8 mph - N/A   Overcast
7:53 PM 28.9 °F 18.6 °F 21.0 °F 72% 29.81 in 10.0 mi NNW 12.7 mph - N/A   Mostly Cloudy
8:53 PM 27.0 °F 18.0 °F 19.0 °F 72% 29.79 in 10.0 mi West 9.2 mph - N/A   Clear
9:53 PM 23.0 °F 13.9 °F 18.0 °F 81% 29.78 in 10.0 mi WNW 8.1 mph - N/A   Partly Cloudy
10:53 PM 21.9 °F 13.4 °F 18.0 °F 85% 29.75 in 10.0 mi NW 6.9 mph - N/A   Clear
11:53 PM 21.0 °F 13.4 °F 18.0 °F 88% 29.72 in 10.0 mi NNW 5.8 mph - N/A   Clear